Philip, SD

9:50 PM MST on February 08, 2016 (GMT -0700)
Philip

Weather History for KPHP - May, 2012

Change the Weather History Date:

Friday, May 4, 2012

  Actual Average Record
Temperature  
Mean Temperature 64 °F 53 °F  
Max Temperature 75 °F 67 °F 94 °F (1966)
Min Temperature 53 °F 39 °F 20 °F (2013)
Degree Days  
Heating Degree Days 1 12  
Month to date heating degree days 19 51  
Since 1 July heating degree days 5640 6918  
Cooling Degree Days 0 0  
Month to date cooling degree days 0 0  
Year to date cooling degree days 14 3  
Growing Degree Days 13 (Base 50)    
Moisture  
Dew Point 55 °F    
Average Humidity 75    
Maximum Humidity 93    
Minimum Humidity 57    
Precipitation  
Precipitation 0.03 in 0.10 in 1.13 in (1961)
Month to date precipitation 0.03 0.38  
Year to date precipitation 2.67 4.27  
Sea Level Pressure  
Sea Level Pressure 29.82 in    
Wind  
Wind Speed 7 mph (East)    
Max Wind Speed 15 mph    
Max Gust Speed 20 mph    
Visibility 10 miles    
Events Rain    
T = Trace of Precipitation, MM = Missing Value Source: NWS Daily Summary

Daily Weather History Graph

Daily Weather History Graph

Search for Another Location

Airport or City:

Trip Planner

Search our weather history database for the weather conditions in past years. The results will help you decide how hot, cold, wet, or windy it might be!

Date:

Astronomy

May. 04, 2012 Rise Set
Actual Time 5:32 AM MDT 7:54 PM MDT
Civil Twilight 5:00 AM MDT 8:26 PM MDT
Nautical Twilight 4:21 AM MDT 9:06 PM MDT
Astronomical Twilight 3:36 AM MDT 9:51 PM MDT
Moon 6:33 PM MDT (5/4) 4:18 AM MDT (5/4)
Length of Visible Light 15h 25m
Length of Day
14h 21m
Waxing Gibbous, 97% of the Moon is Illuminated
May 4
Waxing Gibbous
May 5
Full
May 12
Last Quarter
May 20
New
May 28
First Quarter

Hourly Weather History & Observations

Time (MDT) Temp. Dew Point Humidity Pressure Visibility Wind Dir Wind Speed Gust Speed Precip Events Conditions
12:55 AM 60.1 °F 48.9 °F 67% 29.81 in 10.0 mi ESE 8.1 mph - 0.00 in   Partly Cloudy
1:55 AM 60.1 °F 48.9 °F 67% 29.81 in 10.0 mi ESE 10.4 mph - N/A   Clear
2:55 AM 57.9 °F 51.1 °F 78% 29.77 in 10.0 mi East 9.2 mph - N/A   Clear
3:55 AM 55.9 °F 51.1 °F 84% 29.77 in 10.0 mi ENE 5.8 mph - N/A   Clear
4:55 AM 53.1 °F 50.0 °F 89% 29.80 in 10.0 mi NNW 8.1 mph - N/A   Clear
5:55 AM 54.0 °F 51.1 °F 90% 29.80 in 10.0 mi NNE 9.2 mph - N/A   Partly Cloudy
6:55 AM 55.0 °F 52.0 °F 89% 29.81 in 10.0 mi NE 8.1 mph - N/A   Scattered Clouds
7:55 AM 57.0 °F 54.0 °F 89% 29.83 in 10.0 mi East 9.2 mph - N/A   Overcast
8:55 AM 63.0 °F 55.9 °F 78% 29.82 in 10.0 mi Calm Calm - N/A   Overcast
9:34 AM 64.4 °F 55.4 °F 73% 29.86 in 10.0 mi East 6.9 mph - N/A   Overcast
9:55 AM 64.0 °F 55.0 °F 73% 29.83 in 10.0 mi East 4.6 mph - N/A   Overcast
10:43 AM 66.2 °F 57.2 °F 73% 29.85 in 10.0 mi East 8.1 mph - N/A   Mostly Cloudy
10:55 AM 66.0 °F 55.9 °F 70% 29.81 in 10.0 mi East 6.9 mph - N/A   Scattered Clouds
11:55 AM 69.1 °F 57.0 °F 65% 29.81 in 10.0 mi Calm Calm - N/A   Scattered Clouds
12:08 PM 68.0 °F 57.2 °F 68% 29.85 in 10.0 mi Variable 4.6 mph - N/A   Mostly Cloudy
12:35 PM 71.6 °F 57.2 °F 60% 29.84 in 10.0 mi Calm Calm - N/A   Partly Cloudy
12:55 PM 70.0 °F 57.0 °F 63% 29.81 in 10.0 mi Calm Calm - N/A   Mostly Cloudy
1:30 PM 73.4 °F 57.2 °F 57% 29.83 in 10.0 mi ESE 4.6 mph - N/A   Mostly Cloudy
1:55 PM 73.0 °F 57.0 °F 57% 29.79 in 10.0 mi NE 8.1 mph - N/A   Mostly Cloudy
2:55 PM 73.9 °F 57.9 °F 57% 29.80 in 10.0 mi East 4.6 mph - N/A   Scattered Clouds
3:55 PM 73.9 °F 57.0 °F 55% 29.79 in 10.0 mi ENE 12.7 mph 19.6 mph N/A   Clear
4:55 PM 73.9 °F 57.0 °F 55% 29.80 in 10.0 mi ESE 6.9 mph - N/A   Clear
5:55 PM 72.0 °F 57.0 °F 59% 29.81 in 10.0 mi East 11.5 mph - N/A   Clear
6:55 PM 70.0 °F 57.9 °F 65% 29.83 in 10.0 mi ESE 11.5 mph - N/A   Clear
7:55 PM 64.9 °F 57.0 °F 75% 29.84 in 10.0 mi ESE 4.6 mph - N/A   Clear
8:55 PM 61.0 °F 55.9 °F 83% 29.86 in 10.0 mi ENE 5.8 mph - N/A   Clear
9:55 PM 61.0 °F 57.0 °F 87% 29.87 in 10.0 mi ESE 5.8 mph - N/A   Clear
10:55 PM 61.0 °F 57.0 °F 87% 29.86 in 10.0 mi NE 6.9 mph - N/A   Clear
11:55 PM 60.1 °F 57.0 °F 90% 29.88 in 10.0 mi East 6.9 mph - 0.00 in Rain Light Rain